Theta_e
291 292 291 290 291 293 295 293 296 300 302 302 301 306 305 307 301 301 303 304 306 306 305 303 300 301 299 298 297 298 296 298 296 297 294 295 298 298 295 298 296 292 292 298
291 291 292 291 290 291 293 293 294 295 300 302 302 302 304 303 300 300 302 304 305 303 307 310 302 300 298 298 297 298 297 295 296 303 297 294 297 297 293 287 288 294 296 305
291 291 291 291 291 290 293 294 292 296 298 298 301 301 303 304 301 301 304 304 301 302 304 303 302 301 299 298 297 298 297 298 299 308 305 297 296 297 293 291 292 292 296 296
291 292 291 290 291 291 291 293 293 294 297 297 298 301 302 302 304 300 303 302 304 304 305 303 303 300 299 298 299 296 295 296 294 296 296 296 298 297 295 294 293 300 307 295
291 291 290 290 290 291 290 292 293 295 295 294 295 298 300 303 302 300 300 304 303 303 303 304 303 302 300 301 297 296 295 298 296 298 295 294 295 296 296 296 295 293 295 297
291 291 291 290 290 290 291 291 291 291 292 289 292 293 297 299 300 301 302 301 300 302 302 300 300 300 300 299 298 297 296 298 297 300 294 294 297 297 297 295 293 295 296 299
290 290 289 289 290 290 290 290 290 290 291 292 292 293 294 294 294 295 300 301 303 299 301 299 298 296 296 297 295 297 296 296 294 294 298 305 304 298 297 297 298 294 295 296
290 289 288 289 289 290 290 291 291 291 291 292 292 292 293 293 293 293 298 301 303 301 301 300 299 298 298 293 292 294 295 295 293 297 291 299 304 294 295 296 302 297 297 298
290 289 288 288 289 290 290 290 290 290 291 288 291 291 291 292 292 292 297 299 301 301 301 300 300 298 296 294 293 294 292 293 297 287 296 298 304 295 294 294 301 297 295 296
289 289 289 288 288 289 289 290 289 289 289 290 291 290 290 292 293 293 294 296 297 299 299 301 299 298 289 295 294 293 294 293 296 286 291 293 297 293 294 302 307 295 296 297
289 289 289 289 289 289 289 288 288 288 289 290 291 291 292 292 293 292 294 296 296 296 302 302 300 290 290 290 292 295 295 294 289 286 288 297 294 292 298 300 297 297 297 298
290 289 289 289 289 289 289 289 288 288 289 289 290 291 291 292 293 293 293 294 293 296 299 297 294 296 288 291 295 291 297 294 293 292 296 296 295 298 299 299 299 299 299 299
290 290 289 289 289 289 290 289 289 289 289 289 290 290 290 291 291 291 291 292 293 296 296 293 294 295 291 291 291 293 291 291 293 293 298 294 295 298 299 300 301 302 302 301
290 290 289 289 289 288 288 289 289 289 288 289 290 290 290 290 290 290 291 291 293 294 296 292 293 294 293 293 294 294 293 291 290 292 295 296 299 301 304 304 303 303 304 304
289 290 289 288 288 288 289 289 289 289 289 289 289 289 290 290 290 290 292 292 292 294 296 295 296 291 293 285 287 287 289 292 296 299 299 301 303 304 304 303 304 304 304 304
290 289 288 287 288 289 288 290 288 289 289 289 285 289 289 289 290 290 292 293 294 294 297 296 296 297 295 290 291 293 295 297 300 299 303 301 302 303 305 304 304 304 304 303
290 287 287 288 289 289 288 288 289 289 289 289 286 281 290 290 291 292 293 294 295 295 297 297 295 295 297 295 293 298 299 303 302 302 301 300 304 304 304 303 304 303 303 303
288 287 287 288 288 289 289 288 290 289 289 289 287 281 286 291 292 293 294 295 295 296 298 296 294 291 290 296 290 304 304 305 304 304 305 304 304 303 304 304 304 304 304 303
287 288 287 287 286 287 289 289 289 288 288 289 280 281 283 291 293 294 294 296 296 297 297 295 297 292 299 295 294 301 304 304 304 304 304 303 303 303 303 303 303 303 302 302
287 288 285 284 285 286 287 289 288 289 288 290 283 288 282 291 291 292 293 294 296 296 295 292 295 293 292 301 303 304 304 304 304 302 302 302 302 303 303 302 301 300 300 299
287 284 284 284 285 285 287 287 289 290 289 288 286 289 286 290 291 293 293 293 292 293 289 291 291 291 289 301 303 303 303 303 304 304 304 303 302 302 301 300 299 298 297 296
283 283 284 284 287 287 283 286 287 290 285 286 284 286 291 291 293 293 291 292 293 291 283 287 293 291 299 302 303 303 303 304 304 302 301 300 300 299 298 298 297 295 293 293
283 283 285 285 283 283 286 287 288 289 288 287 288 290 292 291 292 291 290 292 293 280 291 289 289 289 299 302 302 300 300 299 300 300 298 297 294 293 293 293 292 293 293 292
284 283 277 277 279 282 286 287 288 288 286 286 290 287 291 291 291 292 292 278 282 292 287 291 287 290 293 296 297 297 298 298 297 295 292 293 293 292 291 291 291 292 292 292
285 282 277 275 280 282 283 284 284 288 288 290 289 289 288 288 286 284 282 287 287 289 291 286 286 289 292 292 295 295 293 291 292 290 291 292 292 291 290 290 289 290 289 289
284 283 278 277 275 280 283 284 286 289 290 291 293 292 292 291 287 290 294 289 290 288 277 284 286 285 285 287 289 290 291 291 291 290 289 288 289 289 289 288 287 287 287 286
284 277 283 281 282 281 284 286 288 290 290 289 289 292 288 284 286 295 291 284 279 278 280 281 282 283 284 284 286 287 288 287 286 287 288 288 287 287 287 289 286 285 285 285
Wind_Speed
21 21 23 22 20 20 22 7 3 6 12 7 5 11 6 5 5 4 2 4 4 8 8 5 3 6 4 1 5 6 4 4 4 4 1 0 1 4 5 4 5 1 2 7
23 23 24 23 25 16 24 5 8 19 16 6 11 2 4 4 4 5 6 8 5 2 6 3 7 4 2 2 2 5 4 2 3 2 1 3 4 5 4 4 3 6 5 6
26 24 25 23 24 23 20 6 2 5 20 16 4 14 16 5 6 3 4 4 5 3 4 2 5 6 2 2 1 0 2 2 5 5 3 4 5 6 6 5 3 4 8 7
26 25 24 26 21 20 19 6 5 8 3 7 10 5 4 18 12 4 8 4 7 7 5 4 4 3 2 0 2 2 2 4 1 3 3 2 3 5 12 9 7 8 11 11
27 27 28 25 25 19 23 12 5 5 5 11 10 13 22 16 12 12 5 7 9 10 7 9 9 8 5 5 2 5 1 1 1 3 1 3 4 7 12 16 3 12 13 21
28 28 29 29 26 23 25 21 17 12 14 4 3 4 5 10 12 12 24 16 8 12 8 5 7 8 8 6 8 7 5 5 3 5 2 1 7 12 17 8 6 10 9 18
28 29 30 32 31 31 31 28 19 6 10 9 11 8 7 8 8 11 10 16 16 10 16 19 16 14 9 8 2 3 5 4 1 3 0 4 6 2 6 13 9 15 10 12
26 29 32 28 27 29 31 30 20 8 4 10 11 14 14 18 22 19 23 17 11 23 17 3 5 1 3 0 1 4 2 5 1 2 4 6 8 4 7 8 9 20 23 17
25 26 30 22 19 25 27 28 23 18 5 7 22 14 19 12 9 15 12 13 23 23 3 4 6 6 5 4 3 2 5 4 2 2 4 7 5 3 5 4 5 5 13 11
25 23 24 20 19 26 27 27 22 21 15 23 11 7 11 16 5 3 9 9 9 14 5 3 3 4 1 6 11 6 5 2 7 2 3 8 8 6 9 4 5 1 15 10
22 23 23 21 18 19 21 28 26 29 22 26 19 29 22 8 9 6 6 4 4 0 7 6 5 3 7 4 5 6 8 9 4 3 2 9 13 8 7 5 0 1 9 13
25 27 27 26 27 27 27 32 29 29 26 22 18 29 38 33 20 8 10 11 9 8 3 3 3 2 1 6 4 3 5 7 7 10 8 2 23 8 24 6 5 7 8 4
27 28 28 29 31 33 35 38 35 27 24 28 28 32 36 30 26 28 17 17 12 13 12 4 3 4 4 5 5 3 5 5 3 3 7 15 21 24 26 23 25 26 26 27
27 27 27 30 33 35 34 38 41 34 18 6 12 20 28 24 18 23 31 33 29 26 22 4 3 3 7 3 3 4 4 9 5 5 8 15 20 22 21 20 21 23 17 21
24 24 25 28 27 28 26 30 40 37 31 3 5 8 23 19 17 23 20 26 25 19 6 4 4 4 5 1 2 2 7 7 5 6 11 5 3 3 7 13 16 21 25 25
22 22 21 20 20 17 15 12 28 30 31 10 2 7 17 14 15 18 17 30 29 23 8 4 6 7 5 4 5 5 26 20 21 5 10 14 17 23 28 31 26 24 25 25
19 19 15 14 17 11 12 4 5 27 28 6 1 3 10 12 16 16 18 28 19 18 10 7 4 4 9 2 4 5 23 24 27 29 26 24 26 24 28 33 40 37 36 33
17 14 10 9 11 11 15 18 5 13 23 10 3 4 0 10 9 6 16 13 17 11 8 4 2 4 2 3 6 17 16 20 23 26 33 42 40 40 38 35 36 37 36 39
14 11 10 11 10 5 6 7 12 11 12 3 4 5 5 13 10 9 5 12 4 3 3 3 10 3 5 6 9 19 22 32 30 32 31 32 34 34 33 32 36 38 42 40
13 8 4 4 3 5 4 5 7 14 15 15 5 9 2 13 10 3 3 7 4 5 5 6 3 4 4 12 18 16 32 27 29 29 30 31 34 37 38 35 38 39 40 38
10 6 5 6 6 4 4 4 6 9 5 11 11 21 4 14 4 3 7 3 3 3 3 4 3 3 6 24 23 40 34 29 32 37 40 37 36 38 41 43 38 35 33 33
7 3 5 3 2 2 2 3 5 5 4 2 6 8 18 12 9 2 6 4 2 4 4 3 3 5 17 26 32 37 40 40 41 39 36 33 33 32 31 30 29 28 28 29
3 1 1 2 2 2 2 3 3 3 2 3 6 6 13 7 10 2 3 5 3 2 2 3 5 5 16 29 32 31 28 20 19 22 24 22 20 19 19 22 23 26 28 26
2 3 4 3 3 2 3 2 8 12 7 10 12 3 3 5 2 2 1 2 2 3 1 5 3 6 5 6 11 12 12 13 13 11 12 13 15 16 16 20 22 24 25 23
1 1 2 3 3 10 9 12 12 10 7 5 5 5 5 3 3 1 4 4 4 6 5 3 8 11 4 4 5 6 4 2 6 8 7 10 12 12 12 14 15 16 18 18
2 2 1 5 2 4 8 15 12 23 25 7 2 3 3 2 4 3 3 6 6 1 3 11 12 6 7 7 6 4 3 0 2 5 7 6 8 9 10 11 12 12 13 13
2 4 9 10 12 8 6 14 19 23 11 1 2 3 2 1 2 3 2 1 2 6 11 12 8 6 7 8 7 6 5 6 7 9 10 11 11 10 7 10 14 14 14 14
Wind_Direction
316 318 323 326 308 315 318 303 274 315 203 204 210 231 190 196 184 165 180 147 165 191 175 158 219 231 213 149 166 169 195 127 159 208 90 317 191 174 158 131 221 146 143 270
309 308 307 314 320 300 313 241 254 265 223 228 226 251 267 227 172 182 188 197 191 159 163 203 193 207 17 157 204 160 206 235 80 7 27 358 220 188 125 114 98 200 146 258
299 301 300 303 311 319 296 259 269 250 222 246 249 234 240 234 211 203 190 153 101 147 167 203 197 218 64 346 203 333 130 169 172 193 156 123 190 179 168 137 132 180 228 285
296 300 297 291 289 302 292 278 240 209 275 238 261 260 268 227 230 234 167 198 196 188 161 166 218 156 137 287 192 105 174 218 175 254 225 187 204 173 177 200 194 189 263 209
293 293 295 299 286 279 278 253 267 297 255 264 289 274 240 247 232 190 223 236 182 206 177 188 189 160 183 184 160 187 330 319 106 277 217 200 259 225 197 215 235 259 271 286
290 290 291 281 274 262 265 262 242 271 269 205 229 236 351 280 267 233 225 200 179 213 218 161 103 134 143 149 152 155 156 155 131 261 44 299 291 229 199 195 208 195 203 237
287 291 288 282 267 253 252 252 278 253 275 237 234 234 231 298 305 321 243 214 195 149 155 114 97 88 104 125 87 116 139 127 111 216 91 258 247 148 193 207 232 211 261 255
286 286 292 292 260 252 244 252 246 237 249 231 257 257 256 255 274 296 274 220 211 170 137 121 125 94 151 140 45 149 187 124 158 183 204 298 290 196 156 171 271 206 221 248
281 283 290 295 262 242 242 255 261 247 279 227 244 238 248 256 258 297 259 188 174 160 138 169 173 187 164 181 89 76 96 74 126 143 181 216 239 166 174 167 297 195 187 228
276 274 280 284 272 243 248 260 257 267 269 269 268 226 242 230 211 257 317 141 197 180 148 165 156 209 193 167 166 167 133 120 195 187 242 285 239 159 151 100 237 148 193 203
269 270 268 270 270 260 256 261 259 255 257 270 253 242 226 205 203 197 285 298 182 136 187 185 192 146 211 116 158 180 162 152 177 118 115 265 150 101 184 207 98 211 206 202
265 265 262 262 263 265 261 260 255 253 249 262 275 260 237 240 243 241 229 270 328 232 155 195 133 138 163 151 202 159 209 179 178 190 206 256 191 206 211 193 266 262 234 241
261 261 266 265 266 265 260 257 255 242 244 261 250 235 243 238 244 246 235 255 254 251 326 191 167 181 140 168 228 138 238 172 210 126 236 235 238 239 252 252 265 280 279 280
259 263 267 271 273 269 263 251 242 236 236 249 239 245 242 247 250 243 235 247 247 273 296 275 178 180 193 202 153 170 172 138 167 269 278 281 267 251 260 271 275 279 296 295
258 262 273 275 271 270 274 251 230 228 216 213 216 283 242 245 264 256 253 234 239 255 254 247 214 146 137 359 74 235 191 170 171 216 230 201 209 297 301 305 296 296 300 303
254 259 267 281 273 267 251 220 220 226 229 234 212 267 257 259 249 246 235 227 218 223 235 226 236 176 154 163 198 237 198 204 215 224 244 252 283 290 291 292 294 299 297 292
236 257 254 279 301 234 194 192 214 208 205 204 191 279 237 251 232 231 231 226 211 218 234 221 219 172 154 160 195 216 206 220 233 244 261 283 280 280 293 292 297 298 296 294
230 233 251 285 289 282 207 196 168 149 179 202 201 248 139 196 185 197 206 195 200 224 224 198 180 139 123 236 233 194 217 237 236 251 266 269 275 280 286 292 291 291 292 298
211 222 238 274 271 241 224 227 227 241 229 255 138 156 219 186 215 201 237 178 161 217 221 208 170 148 221 202 182 202 218 229 243 249 256 266 269 277 283 286 285 288 293 299
182 199 222 238 222 220 247 206 193 209 209 215 199 192 181 178 169 203 212 181 164 185 206 163 197 242 235 186 201 213 239 239 248 248 260 265 271 278 284 286 291 292 295 297
168 175 216 225 259 284 215 233 219 189 206 206 197 187 152 189 156 225 249 174 177 144 226 158 210 266 225 216 220 243 246 248 253 265 274 276 276 280 286 290 292 292 293 294
169 186 258 275 186 186 156 243 284 258 220 171 161 173 179 170 187 186 217 142 182 197 167 108 247 238 219 200 225 246 244 250 260 267 273 276 278 283 288 289 291 294 295 300
181 256 302 47 250 74 207 259 265 288 353 185 196 144 151 141 189 194 223 145 150 95 85 230 234 262 219 212 223 233 242 249 260 264 273 280 284 288 292 293 294 296 299 306
34 57 318 128 299 254 231 272 297 291 270 261 201 105 130 128 184 316 59 311 76 86 195 234 239 254 278 256 236 237 247 243 248 260 273 282 289 296 301 298 299 300 302 307
352 43 261 253 247 265 269 280 281 305 279 204 112 84 108 107 240 36 129 141 177 188 214 230 335 341 18 95 130 165 191 225 274 301 309 303 303 308 314 310 315 313 316 317
326 286 354 266 348 301 347 333 317 336 347 8 184 168 146 203 143 161 191 142 188 209 253 326 343 17 55 74 83 89 85 49 285 316 333 3 6 7 359 355 353 352 354 353
269 280 281 265 272 251 299 324 329 342 339 20 353 45 174 158 41 59 62 123 272 305 342 1 2 5 29 44 36 25 20 27 32 32 24 17 29 38 46 36 37 35 36 35